Погода в Ельничном

Россия / Новгородская область     58°34′06″N   36°10′30″E
темп.,
°C
ветер,
м/с
пор.,
м/с
влажн.,
%
обл.,
%
осадки,
мм/ч
давл.,
гПа
погр.,
м
7 мая, пт
пт700:00+6ююз51287100 0.1 10011262
03:00+5юз5118787 0.3 1003970
06:00+5юз5981100 0.0 1004983
09:00+6юз587788 0.3 10051087
12:00+9зюз51054100 0.2 10061902
15:00+11юз5104783 0.6 10072314
18:00+11ююз48565 0.4 10071589
21:00+6ю388049 0.5 1009173
8 мая, сб
сб800:00+5ююв3984100 0.0 1009197
03:00+5юв41286100 0.0 1007311
06:00+6ююв51383100 0.1 10061052
09:00+7ююв61393100 1.4 10051005
12:00+7ююв4995100 0.1 1004770
15:00+7ю2598100 0.8 1005347
18:00+7ссз3690100 0.2 1005532
21:00+5ссз3892100 0.3 1006360
9 мая, вс
вс900:00+4сз5894100 0.0 1008691
03:00+3ссз5109192 0.0 1009824
06:00+3сз51085100 0.0 1010922
09:00+6ссз5868100 0.0 10121153
12:00+9ссз584958 0.0 10141820
15:00+12ссз683599 0.0 10152647
18:00+11сз47425 0.0 10182251
21:00+5сз22632 0.0 102125
10 мая, пн
пн1000:00+3сз116792 0.0 102310
03:00+2ююз227035 0.0 102512
06:00+4ю267449 0.0 1027144
09:00+11ююз485156 0.0 1027631
12:00+11юз3857100 0.0 1027674
15:00+12ююз385957 0.0 1027748
18:00+16ююз36575 0.0 10271067
21:00+10ю358273 0.0 102871
11 мая, вт
вт1100:00+8ююз258985 0.0 102979
03:00+7ююз239185 0.0 103052
06:00+8ю2686100 0.0 1031153
09:00+14ююз3465100 0.0 1031372
12:00+18ю3451100 0.0 10301019
15:00+19ю34478 0.0 10301320
18:00+19ююв34565 0.0 1028850
21:00+12ююв388427 0.0 1029149